DW6885 Weather Reports


Display with metric or nautical units.
time (UTC)temp
F
wind
direction
speed
MPH
gust
MPH
rain 1hr
in
rain 24hr
in
rain mn
in
humidity
%
barometer
mb
20140423063622 49 231 0.0 1.0 0.00 0.06 0.00 98 996.3
20140423063202 49 231 0.0 1.0 0.00 0.06 0.00 98 996.3
20140423062626 49 231 0.0 0.0 0.00 0.06 0.00 98 996.4
20140423061503 48 231 0.0 2.0 0.00 0.06 0.00 98 996.4
20140423060549 49 231 0.0 1.0 0.00 0.06 0.00 97 996.4
20140423060005 48 231 0.0 1.0 0.00 0.06 0.00 97 996.4
20140423054624 49 231 0.0 0.0 0.00 0.06 0.00 97 996.5
20140423054504 49 231 0.0 0.0 0.00 0.06 0.00 97 996.5
20140423053002 49 231 0.0 2.0 0.00 0.06 0.00 97 996.5
20140423052627 50 231 0.0 3.0 0.00 0.06 0.00 97 996.5
20140423051502 50 224 0.0 3.0 0.00 0.06 0.00 97 996.6
20140423050001 50 250 0.0 2.0 0.00 0.06 0.00 98 996.7
20140423045552 51 250 0.0 2.0 0.00 0.06 0.00 98 996.7
20140423044602 51 348 0.0 3.0 0.00 0.06 0.00 98 996.8
20140423044558 51 348 1.0 3.0 0.00 0.06 0.00 98 996.8
20140423043624 51 185 1.0 7.0 0.00 0.06 0.00 98 996.9
20140423043201 51 267 0.0 7.0 0.00 0.06 0.00 97 996.8
20140423042626 51 215 1.0 3.0 0.00 0.06 0.00 97 996.9
20140423041546 51 213 0.0 2.0 0.00 0.06 0.00 97 996.9
20140423041503 51 213 0.0 2.0 0.00 0.06 0.00 97 996.9
20140423040622 51 210 0.0 3.0 0.00 0.06 0.00 97 996.8
20140423040001 51 210 0.0 4.0 0.00 0.06 0.06 97 996.9
20140423035541 51 187 1.0 5.0 0.00 0.06 0.06 97 996.9
20140423034405 50 210 1.0 6.0 0.00 0.06 0.06 97 996.9
20140423033541 51 244 1.0 3.0 0.00 0.06 0.06 96 997.0
20140423032905 51 252 0.0 4.0 0.00 0.06 0.06 96 997.0
20140423031406 51 254 1.0 3.0 0.00 0.06 0.06 96 997.2
20140423030002 51 219 0.0 2.0 0.01 0.06 0.06 96 997.3
20140423024543 52 232 0.0 1.0 0.02 0.06 0.06 96 997.5
20140423024401 51 232 0.0 2.0 0.02 0.06 0.06 96 997.5
20140423022904 51 233 0.0 1.0 0.03 0.06 0.06 95 997.3
20140423022541 52 233 0.0 3.0 0.03 0.06 0.06 95 997.4
20140423021404 52 217 0.0 2.0 0.04 0.06 0.06 95 997.4
20140423020541 52 217 1.0 3.0 0.04 0.06 0.06 94 997.5
20140423015810 52 203 0.0 3.0 0.04 0.05 0.05 93 997.6
20140423015542 52 210 1.0 3.0 0.04 0.05 0.05 93 997.7
20140423014306 52 284 0.0 2.0 0.04 0.04 0.04 92 997.9
20140423013541 53 284 0.0 0.0 0.03 0.03 0.03 91 998.0
20140423012805 53 284 0.0 2.0 0.03 0.03 0.03 90 998.2
20140423012541 54 284 0.0 2.0 0.03 0.03 0.03 90 998.1
20140423011304 54 284 0.0 4.0 0.02 0.02 0.02 87 998.1
20140423010541 55 240 0.0 6.0 0.02 0.02 0.02 86 997.9
20140423005807 56 240 1.0 6.0 0.01 0.01 0.01 82 997.7
20140423005541 56 213 0.0 6.0 0.01 0.01 0.01 80 997.7
20140423004304 57 238 0.0 2.0 0.00 0.00 0.00 74 997.7
20140423002805 59 238 0.0 4.0 0.00 0.00 0.00 65 997.5
20140423002541 59 220 1.0 5.0 0.00 0.00 0.00 63 997.5
20140423001302 59 189 0.0 2.0 0.00 0.00 0.00 61 997.2
20140422235705 60 234 0.0 2.0 0.00 0.00 0.00 60 997.2
20140422234203 60 234 0.0 6.0 0.00 0.00 0.00 58 997.3
20140422232701 61 206 0.0 6.0 0.00 0.00 0.00 57 997.5
20140422232542 61 175 1.0 3.0 0.00 0.00 0.00 57 997.4
20140422231543 62 217 0.0 3.0 0.00 0.00 0.00 56 997.5
20140422231204 61 217 1.0 4.0 0.00 0.00 0.00 56 997.5
20140422225706 62 263 1.0 4.0 0.00 0.00 0.00 55 997.5
20140422224542 62 263 1.0 5.0 0.00 0.00 0.00 54 997.5
20140422224204 62 273 2.0 5.0 0.00 0.00 0.00 54 997.5
20140422222700 62 188 1.0 3.0 0.00 0.00 0.00 54 997.8
20140422222542 63 101 0.0 3.0 0.00 0.00 0.00 54 997.8
20140422221304 63 223 0.0 4.0 0.00 0.00 0.00 53 997.9
20140422215704 63 236 0.0 4.0 0.00 0.00 0.00 51 997.8
20140422214201 63 332 1.0 4.0 0.00 0.00 0.00 49 997.9
20140422213543 64 202 1.0 3.0 0.00 0.00 0.00 48 997.8
20140422212612 64 186 1.0 5.0 0.00 0.00 0.00 48 997.8
20140422211544 65 203 2.0 7.0 0.00 0.00 0.00 47 998.0
20140422211106 65 277 2.0 7.0 0.00 0.00 0.00 47 998.0
20140422210543 65 248 1.0 6.0 0.00 0.00 0.00 46 998.0
20140422205608 65 256 2.0 8.0 0.00 0.00 0.00 45 998.1
20140422204544 66 193 4.0 10.0 0.00 0.00 0.00 44 998.1
20140422204103 66 190 2.0 7.0 0.00 0.00 0.00 43 998.1
20140422203543 67 219 2.0 7.0 0.00 0.00 0.00 42 998.0
20140422202701 67 246 2.0 5.0 0.00 0.00 0.00 41 997.8
20140422202542 68 287 1.0 5.0 0.00 0.00 0.00 40 997.8
20140422201545 68 231 1.0 6.0 0.00 0.00 0.00 40 997.9
20140422201203 68 216 1.0 6.0 0.00 0.00 0.00 40 998.0
20140422200542 68 189 3.0 8.0 0.00 0.00 0.00 40 997.9
20140422195544 68 247 3.0 8.0 0.00 0.00 0.00 39 998.1
20140422195506 68 237 3.0 10.0 0.00 0.00 0.00 39 998.0
20140422194001 68 207 1.0 7.0 0.00 0.00 0.00 40 998.2
20140422192542 69 238 2.0 10.0 0.00 0.00 0.00 40 998.6
20140422192500 68 169 1.0 13.0 0.00 0.00 0.00 40 998.6
20140422191005 68 267 4.0 10.0 0.00 0.00 0.00 37 998.9
20140422190544 69 184 2.0 9.0 0.00 0.00 0.00 37 998.9
20140422185542 70 244 3.0 9.0 0.00 0.00 0.00 36 998.7
20140422185502 69 188 2.0 9.0 0.00 0.00 0.00 37 998.7
20140422184006 70 267 2.0 7.0 0.00 0.00 0.00 34 998.7
20140422183542 72 254 3.0 7.0 0.00 0.00 0.00 32 998.8
20140422182556 73 156 2.0 8.0 0.00 0.00 0.00 32 998.9
20140422182501 72 150 2.0 5.0 0.00 0.00 0.00 32 998.9
20140422181545 72 185 3.0 9.0 0.00 0.00 0.00 32 999.3
20140422181006 71 219 3.0 9.0 0.00 0.00 0.00 34 999.3
20140422180543 72 307 4.0 9.0 0.00 0.00 0.00 31 999.4
20140422175405 71 191 2.0 7.0 0.00 0.00 0.00 31 999.4
20140422174545 72 252 3.0 7.0 0.00 0.00 0.00 32 999.5
20140422173901 72 256 1.0 7.0 0.00 0.00 0.00 31 999.6
20140422173542 72 255 3.0 7.0 0.00 0.00 0.00 33 999.8
20140422172543 71 280 3.0 7.0 0.00 0.00 0.00 32 999.8
20140422172401 71 191 2.0 7.0 0.00 0.00 0.00 33 999.8
20140422171544 71 336 1.0 3.0 0.00 0.00 0.00 33 1000.0
20140422170906 70 246 2.0 8.0 0.00 0.00 0.00 33 1000.0
20140422165542 69 349 2.0 6.0 0.00 0.00 0.00 33 1000.2
20140422165405 69 198 1.0 6.0 0.00 0.00 0.00 35 1000.2
20140422164544 69 197 1.0 5.0 0.00 0.00 0.00 35 1000.5
20140422163905 68 279 1.0 6.0 0.00 0.00 0.00 35 1000.5
20140422162542 69 211 3.0 8.0 0.00 0.00 0.00 34 1000.9
20140422162500 68 199 2.0 7.0 0.00 0.00 0.00 34 1000.8
20140422161544 68 286 3.0 8.0 0.00 0.00 0.00 35 1000.9
20140422160803 67 252 2.0 8.0 0.00 0.00 0.00 36 1001.2
20140422160542 68 136 2.0 6.0 0.00 0.00 0.00 36 1001.4
20140422155542 68 207 5.0 12.0 0.00 0.00 0.00 35 1001.5
20140422155302 67 30 4.0 11.0 0.00 0.00 0.00 35 1001.5
20140422154544 67 206 2.0 5.0 0.00 0.00 0.00 37 1001.5
20140422153802 66 281 2.0 9.0 0.00 0.00 0.00 37 1001.6
20140422152304 65 246 0.0 10.0 0.00 0.00 0.00 39 1001.8
20140422151543 66 305 2.0 7.0 0.00 0.00 0.00 39 1002.0
20140422150801 65 112 2.0 9.0 0.00 0.00 0.00 38 1002.2
20140422150542 66 328 3.0 9.0 0.00 0.00 0.00 39 1002.3
20140422145303 64 184 1.0 5.0 0.00 0.00 0.00 42 1002.4
20140422143804 62 173 2.0 6.0 0.00 0.00 0.00 44 1002.6
20140422143542 62 321 2.0 6.0 0.00 0.00 0.00 45 1002.7
20140422142542 61 232 2.0 3.0 0.00 0.00 0.00 49 1002.9
20140422142204 60 325 1.0 5.0 0.00 0.00 0.00 52 1003.0
20140422141544 59 240 2.0 5.0 0.00 0.00 0.00 52 1003.2
20140422140702 58 204 2.0 5.0 0.00 0.00 0.00 56 1003.2
20140422135203 55 203 1.0 3.0 0.00 0.00 0.00 59 1003.3
20140422134543 55 203 0.0 2.0 0.00 0.00 0.00 61 1003.4
20140422133705 55 203 0.0 4.0 0.00 0.00 0.00 63 1003.6
20140422132204 53 192 1.0 3.0 0.00 0.00 0.00 67 1003.8
20140422130803 52 190 0.0 2.0 0.00 0.00 0.00 70 1004.0
20140422130542 53 189 1.0 3.0 0.00 0.00 0.00 69 1004.1
20140422125104 51 151 0.0 3.0 0.00 0.00 0.00 71 1004.3
20140422124544 51 151 1.0 3.0 0.00 0.00 0.00 72 1004.3
20140422123702 50 151 0.0 3.0 0.00 0.00 0.00 74 1004.3
20140422122104 49 151 0.0 3.0 0.00 0.00 0.00 78 1004.7
20140422121544 49 151 0.0 3.0 0.00 0.00 0.00 78 1004.8
20140422120601 48 148 0.0 3.0 0.00 0.00 0.00 80 1004.9
20140422120541 48 235 1.0 3.0 0.00 0.00 0.00 80 1005.0
20140422115541 47 236 0.0 3.0 0.00 0.00 0.00 83 1005.1
20140422115105 46 236 0.0 4.0 0.00 0.00 0.00 83 1005.1
20140422114543 45 239 1.0 3.0 0.00 0.00 0.00 85 1005.2
20140422113606 43 239 0.0 1.0 0.00 0.00 0.00 88 1005.2
20140422113541 44 239 0.0 1.0 0.00 0.00 0.00 88 1005.2
20140422112003 42 239 0.0 0.0 0.00 0.00 0.00 90 1005.2
20140422111544 42 239 0.0 0.0 0.00 0.00 0.00 90 1005.4
20140422110542 42 239 0.0 0.0 0.00 0.00 0.00 90 1005.6
20140422110504 41 239 0.0 0.0 0.00 0.00 0.00 90 1005.6
20140422105543 41 239 0.0 0.0 0.00 0.00 0.00 89 1005.7
20140422105004 41 239 0.0 0.0 0.00 0.00 0.00 89 1005.9
20140422103606 41 239 0.0 0.0 0.00 0.00 0.00 88 1006.0
20140422103543 41 239 0.0 0.0 0.00 0.00 0.00 88 1005.9
20140422102540 41 239 0.0 0.0 0.00 0.00 0.00 87 1006.0
20140422102002 41 239 0.0 0.0 0.00 0.00 0.00 87 1006.0
20140422100504 41 239 0.0 0.0 0.00 0.00 0.00 86 1006.1
20140422095540 42 239 0.0 0.0 0.00 0.00 0.00 86 1006.2
20140422095006 42 239 0.0 0.0 0.00 0.00 0.00 86 1006.3
20140422094542 42 239 0.0 0.0 0.00 0.00 0.00 86 1006.3
20140422093540 42 239 0.0 0.0 0.00 0.00 0.00 86 1006.3
20140422093504 42 239 0.0 0.0 0.00 0.00 0.00 86 1006.3
20140422092540 42 239 0.0 2.0 0.00 0.00 0.00 86 1006.6
20140422091903 42 239 0.0 2.0 0.00 0.00 0.00 86 1006.6
20140422091542 42 239 0.0 2.0 0.00 0.00 0.00 86 1006.6
20140422090540 42 239 0.0 0.0 0.00 0.00 0.00 85 1006.6
20140422090405 42 239 0.0 0.0 0.00 0.00 0.00 85 1006.6
20140422085007 42 239 0.0 0.0 0.00 0.00 0.00 85 1006.4
20140422083540 42 239 0.0 0.0 0.00 0.00 0.00 85 1006.8
20140422083501 42 239 0.0 0.0 0.00 0.00 0.00 85 1006.7
20140422082539 42 239 0.0 0.0 0.00 0.00 0.00 85 1007.0
20140422081904 41 239 0.0 0.0 0.00 0.00 0.00 85 1007.0
20140422081542 42 239 0.0 0.0 0.00 0.00 0.00 85 1007.1
20140422080540 42 239 0.0 0.0 0.00 0.00 0.00 84 1007.0
20140422080403 41 239 0.0 0.0 0.00 0.00 0.00 84 1007.0
20140422074903 41 239 0.0 0.0 0.00 0.00 0.00 84 1007.3
20140422073401 41 239 0.0 0.0 0.00 0.00 0.00 83 1007.4
20140422072539 42 239 0.0 0.0 0.00 0.00 0.00 83 1007.5
20140422071804 41 239 0.0 0.0 0.00 0.00 0.00 82 1007.6
20140422070541 41 239 0.0 0.0 0.00 0.00 0.00 82 1007.7
20140422070400 41 239 0.0 0.0 0.00 0.00 0.00 82 1007.7
20140422065540 41 239 0.0 0.0 0.00 0.00 0.00 82 1007.9
20140422064804 41 239 0.0 0.0 0.00 0.00 0.00 82 1007.9
20140422064549 41 239 0.0 0.0 0.00 0.00 0.00 82 1008.0